• In Belarus
  • List of Countries
  • For 7 days
  • Water Temperature
  • Satellite Maps
  • Weather Map
  • Weather Widgets
  • user-avatar
    Login

    Hourly Weather Suhie Lyady

    Today, 16 July, Monday

    Time Temperature Precipitation Wind Pressure Humidity
    00:00 +18°C° 0 mm 2 mps 742 mmHg 96%
    01:00 +18°C° 0 mm 2 mps 742 mmHg 96%
    02:00 +18°C° 0 mm 2 mps 742 mmHg 97%
    03:00 +18°C° 0 mm 2 mps 742 mmHg 97%
    04:00 +18°C° 0 mm 2 mps 742 mmHg 97%
    05:00 +18°C° 0 mm 2 mps 742 mmHg 97%
    06:00 +19°C° 0 mm 2 mps 742 mmHg 94%
    07:00 +20°C° 0 mm 3 mps 742 mmHg 91%
    08:00 +22°C° 0 mm 3 mps 742 mmHg 88%
    09:00 +24°C° 0.2 mm 3 mps 742 mmHg 79%
    10:00 +26°C° 0.2 mm 4 mps 742 mmHg 71%
    11:00 +28°C° 0.2 mm 4 mps 742 mmHg 62%
    12:00 +28°C° 0.5 mm 4 mps 742 mmHg 66%
    13:00 +27°C° 0.5 mm 4 mps 742 mmHg 70%
    14:00 +27°C° 0.5 mm 4 mps 742 mmHg 75%
    15:00 +27°C° 0.6 mm 4 mps 741 mmHg 77%
    16:00 +26°C° 0.6 mm 3 mps 741 mmHg 79%
    17:00 +26°C° 0.6 mm 3 mps 741 mmHg 81%
    18:00 +25°C° 0.4 mm 3 mps 741 mmHg 84%
    19:00 +24°C° 0.4 mm 3 mps 741 mmHg 86%
    20:00 +22°C° 0.4 mm 3 mps 741 mmHg 89%
    21:00 +21°C° 0 mm 3 mps 741 mmHg 90%
    22:00 +21°C° 0 mm 3 mps 741 mmHg 91%
    23:00 +20°C° 0 mm 3 mps 741 mmHg 92%

    Tomorrow, 17 July, Tuesday

    Time Temperature Precipitation Wind Pressure Humidity
    00:00 +20°C° 0 mm 3 mps 741 mmHg 92%
    01:00 +19°C° 0 mm 3 mps 741 mmHg 92%
    02:00 +19°C° 0 mm 3 mps 741 mmHg 93%
    03:00 +19°C° 0 mm 3 mps 741 mmHg 92%
    04:00 +19°C° 0 mm 4 mps 741 mmHg 92%
    05:00 +19°C° 0 mm 4 mps 741 mmHg 92%
    06:00 +21°C° 0 mm 4 mps 741 mmHg 85%
    07:00 +22°C° 0 mm 4 mps 740 mmHg 79%
    08:00 +25°C° 0 mm 5 mps 740 mmHg 72%
    09:00 +26°C° 0 mm 5 mps 740 mmHg 67%
    10:00 +28°C° 0 mm 5 mps 740 mmHg 61%
    11:00 +29°C° 0 mm 6 mps 740 mmHg 56%
    12:00 +30°C° 0.2 mm 5 mps 740 mmHg 55%
    13:00 +30°C° 0.2 mm 5 mps 739 mmHg 54%
    14:00 +30°C° 0.2 mm 5 mps 739 mmHg 53%
    15:00 +30°C° 0.1 mm 5 mps 739 mmHg 55%
    16:00 +29°C° 0.1 mm 5 mps 739 mmHg 57%
    17:00 +29°C° 0.1 mm 4 mps 739 mmHg 60%
    18:00 +27°C° 0 mm 4 mps 739 mmHg 66%
    19:00 +26°C° 0 mm 3 mps 739 mmHg 72%
    20:00 +24°C° 0 mm 3 mps 739 mmHg 78%
    21:00 +24°C° 0 mm 3 mps 739 mmHg 80%
    22:00 +22°C° 0 mm 3 mps 739 mmHg 81%
    23:00 +21°C° 0 mm 3 mps 739 mmHg 83%

    Day after tomorrow, 18 July, Wednesday

    Time Temperature Precipitation Wind Pressure Humidity
    00:00 +21°C° 0 mm 3 mps 739 mmHg 85%
    01:00 +20°C° 0 mm 3 mps 739 mmHg 87%
    02:00 +20°C° 0 mm 3 mps 739 mmHg 89%
    03:00 +20°C° 0 mm 3 mps 739 mmHg 90%
    04:00 +20°C° 0 mm 3 mps 739 mmHg 91%
    05:00 +20°C° 0 mm 3 mps 739 mmHg 92%
    06:00 +20°C° 0 mm 4 mps 739 mmHg 91%
    07:00 +21°C° 0 mm 4 mps 739 mmHg 89%
    08:00 +21°C° 0 mm 4 mps 739 mmHg 87%
    09:00 +23°C° 0 mm 4 mps 739 mmHg 81%
    10:00 +25°C° 0 mm 4 mps 739 mmHg 75%
    11:00 +27°C° 0 mm 4 mps 739 mmHg 68%
    12:00 +28°C° 0.3 mm 4 mps 739 mmHg 65%
    13:00 +28°C° 0.3 mm 4 mps 739 mmHg 61%
    14:00 +29°C° 0.3 mm 4 mps 739 mmHg 57%
    15:00 +29°C° 0.1 mm 4 mps 739 mmHg 58%
    16:00 +29°C° 0.1 mm 4 mps 739 mmHg 58%
    17:00 +29°C° 0.1 mm 4 mps 739 mmHg 59%
    18:00 +27°C° 0 mm 3 mps 739 mmHg 66%
    19:00 +25°C° 0 mm 3 mps 739 mmHg 74%
    20:00 +22°C° 0 mm 3 mps 739 mmHg 82%
    21:00 +21°C° 0 mm 3 mps 739 mmHg 85%
    22:00 +20°C° 0 mm 2 mps 739 mmHg 89%
    23:00 +19°C° 0 mm 2 mps 739 mmHg 92%

    19 July, Thursday

    Time Temperature Precipitation Wind Pressure Humidity
    00:00 +19°C° 0 mm 2 mps 739 mmHg 94%
    01:00 +18°C° 0 mm 2 mps 739 mmHg 95%
    02:00 +18°C° 0 mm 3 mps 739 mmHg 97%
    03:00 +18°C° 0 mm 3 mps 739 mmHg 96%
    04:00 +18°C° 0 mm 3 mps 739 mmHg 95%
    05:00 +18°C° 0 mm 3 mps 739 mmHg 94%
    06:00 +19°C° 0 mm 3 mps 739 mmHg 91%
    07:00 +20°C° 0 mm 4 mps 739 mmHg 88%
    08:00 +20°C° 0 mm 4 mps 739 mmHg 85%
    09:00 +21°C° 0.1 mm 4 mps 739 mmHg 84%
    10:00 +21°C° 0.1 mm 4 mps 739 mmHg 82%
    11:00 +22°C° 0.1 mm 4 mps 739 mmHg 81%
    12:00 +22°C° 0.4 mm 3 mps 739 mmHg 81%
    13:00 +24°C° 0.4 mm 3 mps 739 mmHg 81%
    14:00 +24°C° 0.4 mm 3 mps 739 mmHg 81%
    15:00 +24°C° 0.7 mm 3 mps 739 mmHg 83%
    16:00 +24°C° 0.7 mm 3 mps 739 mmHg 86%
    17:00 +24°C° 0.7 mm 3 mps 739 mmHg 88%
    18:00 +22°C° 0.3 mm 3 mps 739 mmHg 91%
    19:00 +21°C° 0.3 mm 2 mps 739 mmHg 93%
    20:00 +20°C° 0.3 mm 2 mps 739 mmHg 95%
    21:00 +19°C° 0 mm 2 mps 739 mmHg 96%
    22:00 +19°C° 0 mm 2 mps 739 mmHg 97%
    23:00 +18°C° 0 mm 2 mps 739 mmHg 97%

    20 July, Friday

    Time Temperature Precipitation Wind Pressure Humidity
    00:00 +18°C° 0 mm 2 mps 739 mmHg 97%
    01:00 +18°C° 0 mm 2 mps 739 mmHg 98%
    02:00 +17°C° 0 mm 2 mps 739 mmHg 98%
    03:00 +18°C° 0 mm 2 mps 739 mmHg 98%
    04:00 +18°C° 0 mm 2 mps 739 mmHg 98%
    05:00 +18°C° 0 mm 2 mps 739 mmHg 98%
    06:00 +19°C° 0 mm 2 mps 739 mmHg 95%
    07:00 +20°C° 0 mm 2 mps 739 mmHg 92%
    08:00 +21°C° 0 mm 2 mps 739 mmHg 89%
    09:00 +24°C° 0.4 mm 2 mps 739 mmHg 85%
    10:00 +25°C° 0.4 mm 2 mps 739 mmHg 81%
    11:00 +26°C° 0.4 mm 2 mps 739 mmHg 77%
    12:00 +27°C° 0.5 mm 2 mps 739 mmHg 75%
    13:00 +27°C° 0.5 mm 3 mps 739 mmHg 72%
    14:00 +28°C° 0.5 mm 3 mps 739 mmHg 70%
    15:00 +27°C° 0.5 mm 3 mps 739 mmHg 73%
    16:00 +27°C° 0.5 mm 3 mps 739 mmHg 75%
    17:00 +27°C° 0.5 mm 3 mps 739 mmHg 78%
    18:00 +25°C° 0.2 mm 3 mps 739 mmHg 83%
    19:00 +24°C° 0.2 mm 2 mps 739 mmHg 88%
    20:00 +23°C° 0.2 mm 2 mps 739 mmHg 92%
    21:00 +21°C° 0 mm 2 mps 739 mmHg 94%
    22:00 +20°C° 0 mm 2 mps 739 mmHg 96%
    23:00 +20°C° 0 mm 2 mps 739 mmHg 97%

    21 July, Saturday

    Time Temperature Precipitation Wind Pressure Humidity
    00:00 +19°C° 0 mm 2 mps 739 mmHg 97%
    01:00 +19°C° 0 mm 2 mps 739 mmHg 98%
    02:00 +19°C° 0 mm 2 mps 740 mmHg 98%
    03:00 +19°C° 0 mm 2 mps 740 mmHg 98%
    04:00 +19°C° 0 mm 2 mps 740 mmHg 97%
    05:00 +19°C° 0 mm 2 mps 740 mmHg 97%
    06:00 +20°C° 0 mm 3 mps 740 mmHg 94%
    07:00 +21°C° 0 mm 3 mps 740 mmHg 90%
    08:00 +22°C° 0 mm 3 mps 741 mmHg 87%
    09:00 +24°C° 0 mm 3 mps 741 mmHg 80%
    10:00 +25°C° 0 mm 3 mps 741 mmHg 73%
    11:00 +26°C° 0 mm 4 mps 741 mmHg 67%
    12:00 +27°C° 0.1 mm 4 mps 741 mmHg 62%
    13:00 +28°C° 0.1 mm 4 mps 741 mmHg 56%
    14:00 +29°C° 0.1 mm 4 mps 741 mmHg 51%
    15:00 +29°C° 0 mm 4 mps 741 mmHg 52%
    16:00 +28°C° 0 mm 4 mps 741 mmHg 53%
    17:00 +28°C° 0 mm 3 mps 741 mmHg 54%
    18:00 +26°C° 0 mm 3 mps 741 mmHg 63%
    19:00 +24°C° 0 mm 2 mps 741 mmHg 71%
    20:00 +23°C° 0 mm 2 mps 742 mmHg 79%
    21:00 +21°C° 0 mm 2 mps 742 mmHg 82%
    22:00 +20°C° 0 mm 2 mps 742 mmHg 84%
    23:00 +19°C° 0 mm 2 mps 742 mmHg 87%
    Show more